DAL2601 KBWI-KDTW

Flight info

Callsign DAL2601
Flight time N/A
Altitude 36000
Route LINSE2 MCRAY Q178 KOZAR KLYNK3
Aircraft A321/M-SDE3FGHIRWY/LB1

Departure

Time 2026-04-29 14:43
Airport Baltimore/Washington International Thurgood Marshall Airport (KBWI)

Arrival

Time N/A
Airport Detroit Metropolitan Wayne County Airport (KDTW)
Time Latitude Longitude Altitude Speed Heading
2026-04-29 14:29 39.18027 -76.66467 160 ft 0 kts 307°
2026-04-29 14:32 39.18026 -76.66465 160 ft 3 kts 307°
2026-04-29 14:32 39.18014 -76.66445 160 ft 3 kts 307°
2026-04-29 14:33 39.18003 -76.66425 159 ft 3 kts 307°
2026-04-29 14:33 39.17991 -76.66405 159 ft 3 kts 307°
2026-04-29 14:33 39.17979 -76.66385 158 ft 3 kts 336°
2026-04-29 14:33 39.17978 -76.66384 158 ft 0 kts 342°
2026-04-29 14:36 39.17995 -76.66364 158 ft 8 kts 70°
2026-04-29 14:37 39.17948 -76.66298 157 ft 16 kts 172°
2026-04-29 14:37 39.17801 -76.66298 155 ft 25 kts 183°
2026-04-29 14:37 39.17663 -76.66317 155 ft 19 kts 207°
2026-04-29 14:37 39.17545 -76.66407 153 ft 20 kts 213°
2026-04-29 14:38 39.17449 -76.66523 154 ft 15 kts 259°
2026-04-29 14:38 39.17453 -76.66641 158 ft 11 kts 274°
2026-04-29 14:38 39.17460 -76.66756 159 ft 16 kts 274°
2026-04-29 14:38 39.17470 -76.66932 160 ft 23 kts 275°
2026-04-29 14:39 39.17543 -76.67098 161 ft 21 kts 315°
2026-04-29 14:39 39.17663 -76.67213 158 ft 22 kts 324°
2026-04-29 14:39 39.17786 -76.67327 156 ft 22 kts 325°
2026-04-29 14:39 39.17911 -76.67441 156 ft 22 kts 323°
2026-04-29 14:40 39.18025 -76.67548 158 ft 19 kts 324°
2026-04-29 14:40 39.18130 -76.67644 160 ft 17 kts 324°
2026-04-29 14:40 39.18218 -76.67724 163 ft 14 kts 325°
2026-04-29 14:40 39.18299 -76.67798 162 ft 14 kts 324°
2026-04-29 14:41 39.18377 -76.67876 163 ft 15 kts 322°
2026-04-29 14:41 39.18481 -76.67971 161 ft 22 kts 324°
2026-04-29 14:41 39.18568 -76.68092 160 ft 17 kts 277°
2026-04-29 14:41 39.18496 -76.68159 160 ft 13 kts 154°
2026-04-29 14:42 39.18479 -76.68143 160 ft 10 kts 147°
2026-04-29 14:42 39.18197 -76.67886 164 ft 89 kts 143°
2026-04-29 14:42 39.17545 -76.67266 163 ft 143 kts 144°
2026-04-29 14:42 39.16608 -76.66393 557 ft 157 kts 144°
2026-04-29 14:43 39.15774 -76.65621 1136 ft 159 kts 147°
2026-04-29 14:43 39.14816 -76.64958 1732 ft 157 kts 171°
2026-04-29 14:43 39.13703 -76.65205 2077 ft 174 kts 207°
2026-04-29 14:43 39.12941 -76.66487 2206 ft 204 kts 250°
2026-04-29 14:44 39.13103 -76.68412 2355 ft 240 kts 292°
2026-04-29 14:44 39.14114 -76.70238 2918 ft 254 kts 309°
2026-04-29 14:44 39.15386 -76.71863 3817 ft 256 kts 314°
2026-04-29 14:44 39.16692 -76.73397 4665 ft 257 kts 315°
2026-04-29 14:45 39.18039 -76.74987 5515 ft 258 kts 313°
2026-04-29 14:45 39.19046 -76.76854 6321 ft 257 kts 289°
2026-04-29 14:45 39.19367 -76.79128 6782 ft 268 kts 271°
2026-04-29 14:45 39.19498 -76.81583 7510 ft 273 kts 270°
2026-04-29 14:46 39.19563 -76.84231 8398 ft 275 kts 271°
2026-04-29 14:46 39.19613 -76.86542 9139 ft 278 kts 271°
2026-04-29 14:46 39.19648 -76.89024 9958 ft 279 kts 271°
2026-04-29 14:46 39.19670 -76.91581 10410 ft 294 kts 270°
2026-04-29 14:47 39.19684 -76.94326 10602 ft 316 kts 270°
2026-04-29 14:47 39.19731 -76.97207 11117 ft 325 kts 275°
2026-04-29 14:47 39.20112 -77.00093 11801 ft 329 kts 280°
2026-04-29 14:47 39.20413 -77.02029 12302 ft 331 kts 280°
2026-04-29 14:48 39.21014 -77.05926 13282 ft 334 kts 279°
2026-04-29 14:48 39.21507 -77.09129 14043 ft 337 kts 279°
2026-04-29 14:48 39.22120 -77.11841 14634 ft 342 kts 290°
2026-04-29 14:48 39.23298 -77.14574 15302 ft 348 kts 303°
2026-04-29 14:49 39.24905 -77.16854 15958 ft 355 kts 314°
2026-04-29 14:49 39.26811 -77.18956 16633 ft 357 kts 315°
2026-04-29 14:49 39.28701 -77.21035 17297 ft 359 kts 315°
2026-04-29 14:49 39.30633 -77.23167 17970 ft 361 kts 314°
2026-04-29 14:50 39.32547 -77.25285 18543 ft 364 kts 314°
2026-04-29 14:50 39.34478 -77.27426 19066 ft 367 kts 314°
2026-04-29 14:50 39.36241 -77.29778 19578 ft 363 kts 303°
2026-04-29 14:50 39.37181 -77.31561 19922 ft 360 kts 295°
2026-04-29 14:51 39.38556 -77.35559 20617 ft 359 kts 288°
2026-04-29 14:51 39.39451 -77.38509 21114 ft 361 kts 288°
2026-04-29 14:51 39.40373 -77.41532 21657 ft 363 kts 288°
2026-04-29 14:51 39.41302 -77.44567 22182 ft 364 kts 288°
2026-04-29 14:52 39.42236 -77.47623 22690 ft 366 kts 287°
2026-04-29 14:52 39.43173 -77.50693 23182 ft 368 kts 287°
2026-04-29 14:52 39.44116 -77.53792 23667 ft 370 kts 287°
2026-04-29 14:52 39.45060 -77.56905 24077 ft 372 kts 287°
2026-04-29 14:53 39.46016 -77.60065 24499 ft 373 kts 287°
2026-04-29 14:53 39.46960 -77.63191 24920 ft 374 kts 287°
2026-04-29 14:53 39.47901 -77.66324 25366 ft 374 kts 287°
2026-04-29 14:53 39.48846 -77.69471 25761 ft 375 kts 287°
2026-04-29 14:54 39.49474 -77.71559 26050 ft 376 kts 288°
2026-04-29 14:54 39.50421 -77.74716 26467 ft 377 kts 288°
2026-04-29 14:54 39.51384 -77.77921 26883 ft 378 kts 288°
2026-04-29 14:54 39.52336 -77.81090 27276 ft 379 kts 288°
2026-04-29 14:55 39.53292 -77.84275 27667 ft 380 kts 288°
2026-04-29 14:55 39.54253 -77.87473 28060 ft 381 kts 288°
2026-04-29 14:55 39.55227 -77.90667 28439 ft 382 kts 288°
2026-04-29 14:55 39.56225 -77.93909 28826 ft 383 kts 288°
2026-04-29 14:56 39.57218 -77.97122 29195 ft 384 kts 288°
2026-04-29 14:56 39.58211 -78.00337 29566 ft 385 kts 288°
2026-04-29 14:56 39.59205 -78.03566 29925 ft 386 kts 288°
2026-04-29 14:56 39.60197 -78.06803 30234 ft 387 kts 287°
2026-04-29 14:57 39.61186 -78.10045 30538 ft 387 kts 287°
2026-04-29 14:57 39.62177 -78.13292 30920 ft 387 kts 287°
2026-04-29 14:57 39.63169 -78.16542 31283 ft 387 kts 287°
2026-04-29 14:57 39.64155 -78.19770 31758 ft 383 kts 287°
2026-04-29 14:58 39.65142 -78.23009 32241 ft 380 kts 287°
2026-04-29 14:58 39.66108 -78.26182 32765 ft 375 kts 287°
2026-04-29 14:58 39.67057 -78.29313 33300 ft 371 kts 286°
2026-04-29 14:58 39.67992 -78.32405 33855 ft 366 kts 286°
2026-04-29 14:59 39.68914 -78.35456 34330 ft 361 kts 286°
2026-04-29 14:59 39.69826 -78.38477 34711 ft 359 kts 286°
2026-04-29 14:59 39.70736 -78.41487 35022 ft 358 kts 286°
2026-04-29 14:59 39.71641 -78.44495 35324 ft 357 kts 286°
2026-04-29 15:00 39.72544 -78.47497 35611 ft 357 kts 285°
2026-04-29 15:00 39.73460 -78.50544 35849 ft 357 kts 286°
2026-04-29 15:00 39.74361 -78.53551 35953 ft 356 kts 286°
2026-04-29 15:01 39.76143 -78.59483 35977 ft 351 kts 286°
2026-04-29 15:01 39.77912 -78.65385 35977 ft 350 kts 286°
2026-04-29 15:02 39.79675 -78.71296 35980 ft 352 kts 285°
2026-04-29 15:02 39.81451 -78.77238 36008 ft 353 kts 285°
2026-04-29 15:03 39.83222 -78.83190 35996 ft 353 kts 285°
2026-04-29 15:03 39.84995 -78.89184 35991 ft 353 kts 285°
2026-04-29 15:04 39.86758 -78.95150 35984 ft 353 kts 285°
2026-04-29 15:04 39.88524 -79.01112 35968 ft 353 kts 285°
2026-04-29 15:05 39.90298 -79.07120 35960 ft 353 kts 285°
2026-04-29 15:05 39.92052 -79.13098 35954 ft 354 kts 285°
2026-04-29 15:06 39.93810 -79.19101 35940 ft 355 kts 285°
2026-04-29 15:06 39.95574 -79.25113 35937 ft 355 kts 285°
2026-04-29 15:07 39.97335 -79.31130 35927 ft 355 kts 285°
2026-04-29 15:07 39.99091 -79.37167 35951 ft 356 kts 285°
2026-04-29 15:08 40.01155 -79.43085 35951 ft 366 kts 296°
2026-04-29 15:08 40.04024 -79.48647 35936 ft 368 kts 296°